Back to catalog

FENGYUN 1C DEB

AliveSSO
NORAD 36733·DEBRIS·🇨🇳 China

Launched May 10, 1999 from Taiyuan Satellite Launch Center

Loading…

Next Passes (next 24 hours)

TLE

AgingSource: Space-Track

Epoch: Sep 8, 2026, 11:03 UTC

1 36733U 99025EBF 26251.46054377  .00002167  00000-0  11571-2 0  9992
2 36733  99.3255 251.9695 0126165  96.8154 264.7388 14.10358713691386

Track FENGYUN 1C DEB in real time with AllMySat

Download on the App Store